CW3996 Weather Reports


Display with metric or nautical units.
time (UTC)temp
F
wind
direction
speed
MPH
gust
MPH
rain 1hr
in
rain 24hr
in
rain mn
in
humidity
%
barometer
mb
20260507220751 77 279 9.0 14.0 0.00 0.00 0.00 9 1015.7
20260507220246 77 254 8.0 12.0 0.00 0.00 0.00 8 1015.6
20260507215723 76 256 5.0 15.0 0.00 0.00 0.00 9 1015.9
20260507215217 78 254 2.0 15.0 0.00 0.00 0.00 8 1015.9
20260507214731 79 262 10.0 15.0 0.00 0.00 0.00 7 1016.0
20260507214224 78 279 1.0 13.0 0.00 0.00 0.00 8 1016.0
20260507213719 78 279 8.0 14.0 0.00 0.00 0.00 9 1016.1
20260507213254 78 300 9.0 14.0 0.00 0.00 0.00 8 1016.2
20260507212726 77 277 6.0 12.0 0.00 0.00 0.00 10 1016.2
20260507212220 77 265 3.0 15.0 0.00 0.00 0.00 9 1016.3
20260507211718 77 262 9.0 15.0 0.00 0.00 0.00 9 1016.4
20260507211232 79 288 7.0 14.0 0.00 0.00 0.00 10 1016.4
20260507210726 77 277 5.0 10.0 0.00 0.00 0.00 9 1016.5
20260507210222 76 271 2.0 13.0 0.00 0.00 0.00 8 1016.6
20260507205716 77 271 5.0 16.0 0.00 0.00 0.00 10 1016.8
20260507205231 77 259 9.0 21.0 0.00 0.00 0.00 8 1016.8
20260507204724 78 279 14.0 21.0 0.00 0.00 0.00 8 1016.9
20260507204218 77 299 8.0 15.0 0.00 0.00 0.00 11 1016.8
20260507203736 76 284 9.0 15.0 0.00 0.00 0.00 10 1016.8
20260507203229 76 286 8.0 19.0 0.00 0.00 0.00 9 1017.0
20260507202743 77 292 13.0 20.0 0.00 0.00 0.00 9 1017.1
20260507202216 78 296 10.0 20.0 0.00 0.00 0.00 9 1017.1
20260507201730 77 317 4.0 17.0 0.00 0.00 0.00 7 1017.1
20260507201245 77 316 6.0 17.0 0.00 0.00 0.00 9 1017.1
20260507200717 74 224 2.0 9.0 0.00 0.00 0.00 10 1017.3
20260507200213 76 224 4.0 9.0 0.00 0.00 0.00 8 1017.3
20260507195727 76 223 3.0 15.0 0.00 0.00 0.00 8 1017.3
20260507195225 77 225 9.0 15.0 0.00 0.00 0.00 6 1017.4
20260507194739 76 237 8.0 13.0 0.00 0.00 0.00 7 1017.4
20260507194232 76 240 7.0 15.0 0.00 0.00 0.00 8 1017.5
20260507193746 76 223 8.0 15.0 0.00 0.00 0.00 7 1017.6
20260507193219 75 239 8.0 12.0 0.00 0.00 0.00 8 1017.7
20260507192713 75 252 4.0 11.0 0.00 0.00 0.00 8 1017.7
20260507192227 75 253 5.0 14.0 0.00 0.00 0.00 10 1017.9
20260507191742 75 252 10.0 14.0 0.00 0.00 0.00 7 1017.9
20260507191216 75 217 6.0 9.0 0.00 0.00 0.00 9 1017.9
20260507190713 74 218 6.0 16.0 0.00 0.00 0.00 8 1018.0
20260507190229 75 221 8.0 16.0 0.00 0.00 0.00 9 1018.2
20260507185722 74 222 7.0 16.0 0.00 0.00 0.00 9 1018.2
20260507185216 74 221 6.0 16.0 0.00 0.00 0.00 9 1018.3
20260507184730 74 233 6.0 13.0 0.00 0.00 0.00 10 1018.4
20260507184224 73 232 9.0 13.0 0.00 0.00 0.00 9 1018.5
20260507183738 73 236 8.0 14.0 0.00 0.00 0.00 10 1018.5
20260507183231 74 205 5.0 14.0 0.00 0.00 0.00 10 1018.6
20260507182725 73 203 10.0 19.0 0.00 0.00 0.00 10 1018.6
20260507182223 73 219 8.0 19.0 0.00 0.00 0.00 9 1018.8
20260507181737 73 214 5.0 14.0 0.00 0.00 0.00 10 1018.8
20260507181229 73 213 11.0 17.0 0.00 0.00 0.00 9 1018.9
20260507180744 73 213 9.0 17.0 0.00 0.00 0.00 9 1018.9
20260507180238 72 217 6.0 16.0 0.00 0.00 0.00 12 1018.9
20260507175751 71 219 12.0 16.0 0.00 0.00 0.00 10 1019.0
20260507175246 71 215 9.0 15.0 0.00 0.00 0.00 9 1019.0
20260507174739 72 219 10.0 15.0 0.00 0.00 0.00 9 1019.0
20260507174232 72 225 9.0 15.0 0.00 0.00 0.00 10 1019.0
20260507173725 71 232 9.0 15.0 0.00 0.00 0.00 10 1019.0
20260507173240 71 217 9.0 14.0 0.00 0.00 0.00 9 1019.1
20260507172732 71 208 8.0 14.0 0.00 0.00 0.00 9 1019.1
20260507172226 71 223 7.0 16.0 0.00 0.00 0.00 10 1019.2
20260507171723 71 226 11.0 16.0 0.00 0.00 0.00 10 1019.2
20260507171218 70 219 11.0 16.0 0.00 0.00 0.00 9 1019.2
20260507170731 70 220 9.0 15.0 0.00 0.00 0.00 10 1019.2
20260507170227 69 212 5.0 16.0 0.00 0.00 0.00 11 1019.3
20260507165720 70 220 8.0 16.0 0.00 0.00 0.00 10 1019.3
20260507165214 70 219 7.0 15.0 0.00 0.00 0.00 10 1019.3
20260507164728 69 220 7.0 15.0 0.00 0.00 0.00 10 1019.4
20260507164226 69 215 9.0 14.0 0.00 0.00 0.00 10 1019.5
20260507163720 69 230 10.0 14.0 0.00 0.00 0.00 10 1019.6
20260507163214 69 218 7.0 16.0 0.00 0.00 0.00 11 1019.6
20260507162748 69 205 7.0 16.0 0.00 0.00 0.00 10 1019.7
20260507162221 69 222 7.0 11.0 0.00 0.00 0.00 11 1019.6
20260507161715 69 219 6.0 10.0 0.00 0.00 0.00 11 1019.6
20260507161229 67 219 8.0 11.0 0.00 0.00 0.00 11 1019.6
20260507160722 67 217 8.0 14.0 0.00 0.00 0.00 11 1019.6
20260507160217 67 218 8.0 14.0 0.00 0.00 0.00 11 1019.6
20260507155734 66 200 8.0 10.0 0.00 0.00 0.00 13 1019.7
20260507155228 64 181 7.0 10.0 0.00 0.00 0.00 13 1019.7
20260507154721 64 158 4.0 10.0 0.00 0.00 0.00 15 1019.8
20260507154216 63 132 3.0 7.0 0.00 0.00 0.00 16 1020.0
20260507153730 62 132 1.0 7.0 0.00 0.00 0.00 14 1020.1
20260507153225 62 132 4.0 7.0 0.00 0.00 0.00 15 1020.1
20260507152719 61 132 0.0 7.0 0.00 0.00 0.00 17 1020.2
20260507152213 60 132 1.0 7.0 0.00 0.00 0.00 16 1020.3
20260507151731 60 132 3.0 7.0 0.00 0.00 0.00 16 1020.3
20260507151246 60 132 1.0 4.0 0.00 0.00 0.00 17 1020.5
20260507150718 60 132 1.0 3.0 0.00 0.00 0.00 16 1020.5
20260507150233 59 132 1.0 3.0 0.00 0.00 0.00 17 1020.5
20260507145726 59 132 1.0 3.0 0.00 0.00 0.00 18 1020.5
20260507145219 59 132 0.0 4.0 0.00 0.00 0.00 15 1020.5
20260507144732 59 132 0.0 4.0 0.00 0.00 0.00 18 1020.5
20260507144226 58 132 1.0 4.0 0.00 0.00 0.00 15 1020.5
20260507143740 58 132 1.0 5.0 0.00 0.00 0.00 17 1020.5
20260507143252 58 132 3.0 5.0 0.00 0.00 0.00 18 1020.5
20260507142729 57 132 2.0 7.0 0.00 0.00 0.00 19 1020.5
20260507142223 57 132 4.0 9.0 0.00 0.00 0.00 20 1020.5
20260507141717 56 132 4.0 9.0 0.00 0.00 0.00 21 1020.5
20260507141231 55 132 5.0 7.0 0.00 0.00 0.00 21 1020.5
20260507140725 54 132 2.0 5.0 0.00 0.00 0.00 24 1020.5
20260507140220 53 132 3.0 5.0 0.00 0.00 0.00 25 1020.5
20260507135734 52 132 2.0 3.0 0.00 0.00 0.00 27 1020.3
20260507135227 51 132 1.0 4.0 0.00 0.00 0.00 31 1020.3
20260507134725 50 132 0.0 4.0 0.00 0.00 0.00 32 1020.2
20260507134220 49 133 3.0 4.0 0.00 0.00 0.00 32 1020.2
20260507133735 47 133 2.0 5.0 0.00 0.00 0.00 32 1020.1
20260507133228 47 132 1.0 5.0 0.00 0.00 0.00 33 1020.0
20260507132722 47 132 3.0 7.0 0.00 0.00 0.00 32 1020.1
20260507132217 45 132 4.0 7.0 0.00 0.00 0.00 34 1020.0
20260507131732 44 132 4.0 7.0 0.00 0.00 0.00 34 1020.1
20260507131225 45 132 5.0 7.0 0.00 0.00 0.00 32 1020.1
20260507130253 45 132 5.0 7.0 0.00 0.00 0.00 30 1020.0
20260507125746 44 133 2.0 4.0 0.00 0.00 0.00 30 1020.1
20260507125223 43 132 2.0 5.0 0.00 0.00 0.00 32 1020.1
20260507124715 44 132 2.0 5.0 0.00 0.00 0.00 32 1020.2
20260507124229 43 132 1.0 2.0 0.00 0.00 0.00 32 1020.2
20260507123723 43 133 1.0 2.0 0.00 0.00 0.00 34 1020.2
20260507123218 43 132 1.0 1.0 0.00 0.00 0.00 32 1020.1
20260507122751 43 132 0.0 2.0 0.00 0.00 0.00 32 1020.0
20260507122245 44 132 0.0 5.0 0.00 0.00 0.00 28 1019.9
20260507121718 45 133 2.0 5.0 0.00 0.00 0.00 26 1020.0
20260507121213 47 132 3.0 7.0 0.00 0.00 0.00 25 1019.9
20260507120747 46 132 4.0 7.0 0.00 0.00 0.00 26 1019.9
20260507120246 47 132 2.0 11.0 0.00 0.00 0.00 26 1019.8
20260507115718 49 132 7.0 11.0 0.00 0.00 0.00 25 1019.9
20260507115232 49 132 8.0 11.0 0.00 0.00 0.00 26 1019.9
20260507114726 50 132 7.0 11.0 0.00 0.00 0.00 25 1019.9
20260507114240 50 132 7.0 12.0 0.00 0.00 0.00 25 1020.0
20260507113713 51 132 10.0 12.0 0.00 0.00 0.00 24 1019.9
20260507113228 51 133 7.0 12.0 0.00 0.00 0.00 23 1020.0
20260507112721 50 133 6.0 12.0 0.00 0.00 0.00 25 1020.0
20260507112219 50 133 8.0 12.0 0.00 0.00 0.00 25 1019.8
20260507111713 49 133 8.0 12.0 0.00 0.00 0.00 26 1020.0
20260507111227 49 133 8.0 13.0 0.00 0.00 0.00 26 1020.0
20260507110721 50 133 8.0 13.0 0.00 0.00 0.00 25 1020.1
20260507110217 49 132 9.0 13.0 0.00 0.00 0.00 25 1020.1
20260507105730 50 132 10.0 14.0 0.00 0.00 0.00 26 1020.2
20260507105244 49 127 10.0 14.0 0.00 0.00 0.00 26 1020.3
20260507104717 49 126 9.0 14.0 0.00 0.00 0.00 27 1020.3
20260507104216 49 126 10.0 14.0 0.00 0.00 0.00 26 1020.3
20260507103749 49 120 10.0 13.0 0.00 0.00 0.00 26 1020.4
20260507103222 49 120 10.0 13.0 0.00 0.00 0.00 27 1020.4
20260507102714 49 119 9.0 12.0 0.00 0.00 0.00 27 1020.5
20260507102228 49 119 8.0 11.0 0.00 0.00 0.00 27 1020.6
20260507101722 49 119 6.0 12.0 0.00 0.00 0.00 26 1020.5
20260507101216 49 119 9.0 12.0 0.00 0.00 0.00 26 1020.5
20260507100750 49 119 8.0 11.0 0.00 0.00 0.00 25 1020.6
20260507100224 49 119 7.0 10.0 0.00 0.00 0.00 25 1020.7
20260507095717 49 119 6.0 10.0 0.00 0.01 0.00 25 1020.7
20260507095216 48 119 7.0 10.0 0.00 0.01 0.00 25 1020.7
20260507094730 49 119 8.0 10.0 0.00 0.01 0.00 24 1020.7
20260507094225 49 119 7.0 12.0 0.00 0.01 0.00 26 1020.7
20260507093719 49 119 9.0 13.0 0.00 0.01 0.00 26 1020.7
20260507093213 49 119 10.0 13.0 0.00 0.01 0.00 26 1020.8
20260507092727 49 119 8.0 11.0 0.00 0.01 0.00 26 1020.8
20260507092221 49 119 9.0 11.0 0.00 0.01 0.00 27 1020.8
20260507091719 49 119 8.0 12.0 0.00 0.01 0.00 26 1020.8
20260507091213 49 119 9.0 12.0 0.00 0.01 0.00 27 1020.8
20260507090727 49 119 9.0 12.0 0.00 0.01 0.00 27 1020.8
20260507090222 49 119 10.0 11.0 0.00 0.01 0.00 26 1020.9
20260507085716 49 119 7.0 11.0 0.00 0.01 0.00 26 1020.9
20260507085230 49 119 9.0 12.0 0.00 0.01 0.00 26 1020.8
20260507084724 49 119 9.0 13.0 0.00 0.01 0.00 26 1020.8
20260507084218 50 119 8.0 14.0 0.00 0.01 0.00 26 1020.8
20260507083736 49 119 10.0 14.0 0.00 0.01 0.00 27 1020.8
20260507083229 49 119 10.0 13.0 0.00 0.01 0.00 27 1020.8
20260507082743 49 119 9.0 12.0 0.00 0.01 0.00 27 1020.9
20260507082237 49 119 7.0 12.0 0.00 0.01 0.00 27 1020.9
20260507081730 49 119 9.0 13.0 0.00 0.01 0.00 27 1020.9
20260507081224 49 119 10.0 13.0 0.00 0.01 0.00 27 1020.9
20260507080718 49 119 10.0 14.0 0.00 0.01 0.00 26 1020.9
20260507080214 49 119 10.0 14.0 0.00 0.01 0.00 26 1021.0
20260507075727 50 119 11.0 14.0 0.00 0.01 0.00 26 1021.0
20260507075225 50 119 10.0 14.0 0.00 0.01 0.00 26 1021.0
20260507074738 49 117 11.0 13.0 0.00 0.01 0.00 26 1021.1
20260507074231 49 113 10.0 13.0 0.00 0.01 0.00 27 1021.1
20260507073725 49 113 9.0 13.0 0.00 0.01 0.00 27 1021.2
20260507073239 49 113 10.0 13.0 0.00 0.01 0.00 26 1021.2
20260507072732 49 111 8.0 12.0 0.00 0.01 0.00 26 1021.2
20260507072246 49 111 9.0 12.0 0.00 0.01 0.00 26 1021.3
20260507071718 49 111 9.0 13.0 0.00 0.01 0.00 26 1021.3
20260507071232 50 110 10.0 13.0 0.00 0.01 0.00 26 1021.2
20260507070726 50 110 9.0 12.0 0.00 0.01 0.00 25 1021.3
20260507070226 50 110 8.0 10.0 0.00 0.01 0.00 25 1021.2
20260507065719 50 110 7.0 11.0 0.00 0.01 0.00 25 1021.3
20260507065214 50 110 8.0 11.0 0.00 0.01 0.00 24 1021.3
20260507064727 50 110 6.0 12.0 0.00 0.01 0.00 24 1021.2
20260507064239 50 110 9.0 12.0 0.00 0.01 0.00 25 1021.2
20260507063732 50 110 8.0 13.0 0.00 0.01 0.00 25 1021.2
20260507063226 50 110 10.0 13.0 0.00 0.01 0.00 25 1021.2
20260507062721 51 109 10.0 13.0 0.00 0.01 0.00 24 1021.1
20260507062239 51 101 6.0 12.0 0.00 0.01 0.00 23 1021.1
20260507061732 50 101 9.0 12.0 0.00 0.01 0.00 23 1021.0
20260507061227 51 99 8.0 12.0 0.00 0.01 0.00 22 1021.1
20260507060720 51 98 10.0 12.0 0.00 0.01 0.00 22 1021.0
20260507060216 51 93 6.0 9.0 0.00 0.01 0.00 22 1021.0
20260507055729 50 93 5.0 9.0 0.00 0.01 0.01 22 1021.0
20260507055223 49 93 7.0 8.0 0.00 0.01 0.01 23 1021.0
20260507054717 49 93 3.0 6.0 0.00 0.01 0.01 23 1021.0
20260507054214 49 93 2.0 6.0 0.00 0.01 0.01 23 1021.0
20260507053748 51 93 3.0 7.0 0.00 0.01 0.01 20 1021.0
20260507053241 52 93 6.0 9.0 0.00 0.01 0.01 18 1020.9
20260507052713 52 93 6.0 9.0 0.00 0.01 0.01 18 1021.0
20260507052228 52 93 6.0 9.0 0.00 0.01 0.01 19 1020.9
20260507051721 52 93 6.0 8.0 0.00 0.01 0.01 19 1020.9
20260507051216 52 93 5.0 8.0 0.00 0.01 0.01 19 1020.9
20260507050731 51 93 7.0 9.0 0.00 0.01 0.01 19 1021.0
20260507050226 51 93 6.0 9.0 0.00 0.01 0.01 19 1021.0
20260507045723 51 93 7.0 9.0 0.00 0.01 0.01 19 1021.1
20260507045219 51 93 7.0 9.0 0.00 0.01 0.01 19 1021.0
20260507044712 51 93 5.0 10.0 0.00 0.01 0.01 19 1021.1
20260507044226 51 93 6.0 11.0 0.00 0.01 0.01 19 1021.1
20260507043721 51 93 8.0 11.0 0.00 0.01 0.01 19 1021.1
20260507043215 51 93 7.0 10.0 0.00 0.01 0.01 19 1021.0
20260507042728 51 92 6.0 9.0 0.00 0.01 0.01 19 1020.9
20260507042221 52 93 7.0 9.0 0.00 0.01 0.01 19 1021.0
20260507041719 52 93 7.0 9.0 0.00 0.01 0.01 19 1021.0
20260507041213 51 93 7.0 12.0 0.00 0.01 0.01 20 1021.0
20260507040727 51 93 8.0 12.0 0.00 0.01 0.01 20 1021.0
20260507040243 51 89 9.0 11.0 0.00 0.01 0.01 21 1021.0
20260507035715 51 74 7.0 10.0 0.00 0.01 0.01 21 1021.0
20260507035249 51 73 5.0 9.0 0.00 0.01 0.01 21 1021.0
20260507034721 52 73 5.0 10.0 0.00 0.01 0.01 19 1020.9
20260507034215 52 73 5.0 10.0 0.00 0.01 0.01 19 1020.9
20260507033713 52 63 7.0 10.0 0.00 0.01 0.01 20 1020.9
20260507033227 52 54 5.0 7.0 0.00 0.01 0.01 20 1020.9
20260507032721 52 54 5.0 10.0 0.00 0.01 0.01 19 1020.7
20260507032215 52 54 5.0 10.0 0.00 0.01 0.01 20 1020.7
20260507031748 53 53 6.0 9.0 0.00 0.01 0.01 19 1020.6
20260507030715 53 47 4.0 7.0 0.00 0.01 0.01 19 1020.4
20260507030231 53 47 6.0 9.0 0.00 0.01 0.01 18 1020.4
20260507025725 53 47 5.0 9.0 0.00 0.01 0.01 18 1020.3
20260507025223 53 47 6.0 9.0 0.00 0.01 0.01 18 1020.2
20260507024717 54 44 4.0 6.0 0.00 0.01 0.01 17 1020.2
20260507024251 55 44 0.0 3.0 0.00 0.01 0.01 16 1020.1
20260507023744 55 44 1.0 3.0 0.00 0.01 0.01 17 1020.1
20260507023218 55 44 1.0 4.0 0.00 0.01 0.01 18 1020.1
20260507022731 55 44 0.0 5.0 0.00 0.01 0.01 17 1020.1
20260507022245 56 44 3.0 6.0 0.00 0.01 0.01 16 1020.1
20260507021719 57 44 5.0 7.0 0.00 0.01 0.01 14 1020.1
20260507021213 57 44 5.0 9.0 0.00 0.01 0.01 14 1020.2
20260507020730 58 44 5.0 9.0 0.00 0.01 0.01 13 1020.2
20260507020246 58 44 6.0 9.0 0.00 0.01 0.01 13 1020.1
20260507015718 59 42 5.0 10.0 0.00 0.01 0.01 12 1020.2
20260507015232 60 42 4.0 12.0 0.00 0.01 0.01 12 1020.3
20260507014745 60 42 7.0 12.0 0.00 0.01 0.01 12 1020.3
20260507014219 60 22 5.0 9.0 0.00 0.01 0.01 12 1020.3
20260507013732 61 22 4.0 9.0 0.00 0.01 0.01 12 1020.3
20260507013226 61 22 4.0 15.0 0.00 0.01 0.01 12 1020.3
20260507012720 61 22 4.0 15.0 0.00 0.01 0.01 11 1020.2
20260507012219 61 30 6.0 12.0 0.00 0.01 0.01 11 1020.2
20260507011713 62 31 7.0 13.0 0.00 0.01 0.01 11 1020.1
20260507011248 62 26 8.0 13.0 0.00 0.01 0.01 10 1020.1
20260507010721 62 24 8.0 13.0 0.00 0.01 0.01 11 1020.1
20260507010216 62 28 5.0 13.0 0.00 0.01 0.01 10 1020.1
20260507005730 62 27 6.0 13.0 0.00 0.01 0.01 10 1020.2
20260507005223 62 26 7.0 13.0 0.00 0.01 0.01 10 1020.2
20260507004717 63 24 9.0 15.0 0.00 0.01 0.01 10 1020.1
20260507004230 63 33 5.0 15.0 0.00 0.01 0.01 10 1020.0
20260507003728 63 44 9.0 15.0 0.00 0.01 0.01 11 1020.1
20260507003222 63 30 6.0 15.0 0.00 0.01 0.01 11 1020.1
20260507002717 63 21 11.0 19.0 0.00 0.01 0.01 10 1020.0
20260507002231 63 21 10.0 19.0 0.00 0.01 0.01 11 1019.9
20260507001726 63 36 6.0 14.0 0.00 0.01 0.01 10 1019.9
20260507001221 63 19 7.0 15.0 0.00 0.01 0.01 9 1019.8
20260507000734 64 360 10.0 15.0 0.00 0.01 0.01 12 1019.8
20260507000229 63 49 6.0 15.0 0.00 0.01 0.01 10 1019.7
20260506235742 64 45 9.0 14.0 0.00 0.01 0.01 11 1019.7
20260506235220 64 336 7.0 18.0 0.00 0.01 0.01 9 1019.7
20260506234714 64 26 9.0 19.0 0.00 0.01 0.01 10 1019.8
20260506234228 64 40 11.0 19.0 0.00 0.01 0.01 10 1019.7
20260506233722 65 44 9.0 18.0 0.00 0.01 0.01 9 1019.7
20260506233216 64 40 7.0 18.0 0.00 0.01 0.01 9 1019.7
20260506232730 64 49 9.0 20.0 0.00 0.01 0.01 8 1019.6
20260506232223 65 14 9.0 20.0 0.00 0.01 0.01 9 1019.7
20260506231717 64 17 8.0 20.0 0.00 0.01 0.01 11 1019.5
20260506231215 64 344 8.0 18.0 0.00 0.01 0.01 10 1019.7
20260506230729 64 360 5.0 18.0 0.00 0.01 0.01 11 1019.8
20260506230224 64 41 10.0 17.0 0.00 0.01 0.01 12 1019.8
20260506225718 65 340 8.0 17.0 0.00 0.01 0.01 9 1019.8
20260506225251 65 15 9.0 15.0 0.00 0.01 0.01 11 1019.7
20260506224724 65 5 8.0 17.0 0.00 0.01 0.01 11 1019.7
20260506224218 64 16 8.0 17.0 0.00 0.01 0.01 9 1019.6
20260506223732 65 344 9.0 17.0 0.00 0.01 0.01 10 1019.6
20260506223227 64 9 7.0 17.0 0.00 0.01 0.01 11 1019.6
20260506222724 64 26 9.0 19.0 0.00 0.01 0.01 12 1019.7
20260506222218 65 19 12.0 19.0 0.00 0.01 0.01 9 1019.7
20260506221732 64 30 10.0 19.0 0.00 0.01 0.01 11 1019.7
20260506221226 64 5 11.0 24.0 0.00 0.01 0.01 9 1019.7